Content
SEND FEEDBACK

Daily
Averages
Monthly
Summary
United States of America

ROCKLAND, MAINE


Home > North America > United States > Maine
Elevation: 40 feet     Latitude: 44 06N     Longitude: 069 07W

WEATHER
 
SELECT A DAY
Number of Records: 465,978;   Date Range: 1/1/95 - 12/18/14
 
SHARE

PRINT THIS DATA

[ ← Previous Day ]
WEATHER ALMANAC - FEBRUARY 13, 2013
[ Next Day → ]
[ °C ]   °F
Weather ElementAverageHighLow
Temperature35.9 °F42.8 °F (1:55 pm)30.2 °F (6:35 pm)
Dewpoint24.1 °F28.4 °F (1:15 am)19.4 °F (10:15 pm)
Humidity63.2 %86 % (6:35 pm)42 % (1:55 pm)
Barometer29.74 in29.79 in (8:35 am)29.71 in (1:55 am)
Wind Speed6.8 mph13.8 mph (10:55 am)
Wind Gust16.1 mph (10:15 am)
Weather ElementAverage
Visibility10 mi
Wind DirectionWSW (247.7 °)

Weather ElementTotal
Precipitation---
Heating Degree Days28.5 (Base 65)
Averaged from 71 records on February 13, 2013
WEATHER CONDITIONS BREAKOUT
WIND DIRECTION BREAKOUT
WEATHER BY HOUR - FEBRUARY 13, 2013
[ °C ]   °F
Local TimeTemperatureDewpointHumidityBarometerVisibilityWind DirectionWind SpeedGust SpeedPrecipitationEventsConditions
12:35 AM33.8 °F26.6 °F75 %29.72 in10.0 miWSW (250°)3.5 mphClear
12:55 AM33.8 °F26.6 °F75 %29.72 in10.0 miCalmMostly Cloudy
1:15 AM33.8 °F28.4 °F81 %29.72 in10.0 miSW (220°)4.6 mphOvercast
1:35 AM33.8 °F26.6 °F75 %29.72 in10.0 miWSW (240°)6.9 mphOvercast
1:55 AM33.8 °F26.6 °F75 %29.71 in10.0 miWSW (240°)6.9 mphScattered Clouds
2:15 AM33.8 °F26.6 °F75 %29.72 in10.0 miWSW (240°)8.1 mphClear
2:35 AM33.8 °F26.6 °F75 %29.72 in10.0 miWSW (250°)10.4 mphClear
2:55 AM33.8 °F26.6 °F75 %29.73 in10.0 miWest (260°)11.5 mphClear
3:15 AM33.8 °F26.6 °F75 %29.72 in10.0 miWest (270°)11.5 mphClear
3:35 AM33.8 °F24.8 °F70 %29.72 in10.0 miWest (280°)8.1 mphClear
3:55 AM32.0 °F24.8 °F75 %29.73 in10.0 miWest (280°)5.8 mphMostly Cloudy
4:15 AM33.8 °F26.6 °F75 %29.73 in10.0 miWest (280°)6.9 mphOvercast
4:35 AM35.6 °F24.8 °F65 %29.74 in10.0 miWNW (300°)5.8 mphMostly Cloudy
4:55 AM35.6 °F24.8 °F65 %29.74 in10.0 miWNW (290°)9.2 mphMostly Cloudy
5:15 AM35.6 °F24.8 °F65 %29.74 in10.0 miWNW (290°)9.2 mphScattered Clouds
5:35 AM35.6 °F24.8 °F65 %29.74 in10.0 miWNW (290°)6.9 mphMostly Cloudy
5:55 AM35.6 °F24.8 °F65 %29.74 in10.0 miWest (280°)9.2 mphMostly Cloudy
6:15 AM35.6 °F24.8 °F65 %29.74 in10.0 miWest (270°)8.1 mphScattered Clouds
6:35 AM33.8 °F24.8 °F70 %29.75 in10.0 miWSW (250°)6.9 mphClear
6:55 AM35.6 °F24.8 °F65 %29.74 in10.0 miWest (260°)11.5 mphPartly Cloudy
7:15 AM35.6 °F24.8 °F65 %29.76 in10.0 miWest (260°)9.2 mphPartly Cloudy
7:35 AM35.6 °F24.8 °F65 %29.77 in10.0 miWest (260°)6.9 mphScattered Clouds
7:55 AM35.6 °F24.8 °F65 %29.77 in10.0 miWSW (250°)9.2 mphMostly Cloudy
8:15 AM35.6 °F23.0 °F60 %29.78 in10.0 miWest (270°)8.1 mphOvercast
8:35 AM35.6 °F23.0 °F60 %29.79 in10.0 miWest (260°)10.4 mphOvercast
8:55 AM35.6 °F23.0 °F60 %29.79 in10.0 miWest (280°)11.5 mphMostly Cloudy
9:15 AM35.6 °F23.0 °F60 %29.79 in10.0 miWest (270°)11.5 mphPartly Cloudy
9:35 AM37.4 °F21.2 °F52 %29.78 in10.0 miWNW (300°)6.9 mphClear
9:55 AM37.4 °F21.2 °F52 %29.78 in10.0 miWest (280°)10.4 mphClear
10:15 AM37.4 °F23.0 °F56 %29.78 in10.0 miNW (310°)8.1 mph16.1 mphClear
10:35 AM37.4 °F23.0 °F56 %29.77 in10.0 miWSW (250°)12.7 mphClear
10:55 AM37.4 °F23.0 °F56 %29.77 in10.0 miWest (270°)13.8 mphClear
11:15 AM39.2 °F23.0 °F52 %29.77 in10.0 miWest (280°)10.4 mphPartly Cloudy
11:35 AM39.2 °F23.0 °F52 %29.76 in10.0 miWNW (300°)4.6 mphPartly Cloudy
11:55 AM39.2 °F23.0 °F52 %29.75 in10.0 miWest (270°)4.6 mphClear
12:15 PM39.2 °F23.0 °F52 %29.74 in10.0 miWest (270°)8.1 mphScattered Clouds
12:35 PM39.2 °F21.2 °F49 %29.73 in10.0 miWest (270°)9.2 mphScattered Clouds
12:55 PM39.2 °F21.2 °F49 %29.73 in10.0 miWNW (290°)5.8 mphClear
1:15 PM41.0 °F21.2 °F45 %29.73 in10.0 miWSW (240°)6.9 mphScattered Clouds
1:35 PM41.0 °F21.2 °F45 %29.73 in10.0 miWSW (250°)5.8 mphMostly Cloudy
1:55 PM42.8 °F21.2 °F42 %29.73 in10.0 miSW (220°)6.9 mphMostly Cloudy
2:15 PM41.0 °F21.2 °F45 %29.73 in10.0 miSW (230°)9.2 mphOvercast
2:35 PM39.2 °F26.6 °F61 %29.74 in10.0 miSSW (200°)9.2 mphMostly Cloudy
2:55 PM41.0 °F26.6 °F57 %29.74 in10.0 miSSW (210°)11.5 mphOvercast
3:15 PM39.2 °F26.6 °F61 %29.74 in10.0 miSouth (190°)8.1 mphScattered Clouds
3:35 PM39.2 °F24.8 °F56 %29.73 in10.0 miSSW (210°)8.1 mphPartly Cloudy
3:55 PM39.2 °F24.8 °F56 %29.73 in10.0 miSW (230°)9.2 mphClear
4:15 PM39.2 °F24.8 °F56 %29.73 in10.0 miSW (220°)6.9 mphClear
4:35 PM37.4 °F26.6 °F65 %29.73 in10.0 miSSW (210°)5.8 mphPartly Cloudy
4:55 PM37.4 °F24.8 °F60 %29.73 in10.0 miWSW (240°)5.8 mphPartly Cloudy
5:15 PM35.6 °F24.8 °F65 %29.73 in10.0 miSW (230°)5.8 mphClear
5:35 PM33.8 °F26.6 °F75 %29.73 in10.0 miSW (220°)3.5 mphScattered Clouds
5:55 PM33.8 °F24.8 °F70 %29.73 in10.0 miCalmPartly Cloudy
6:15 PM32.0 °F26.6 °F80 %29.73 in10.0 miCalmMostly Cloudy
6:35 PM30.2 °F26.6 °F86 %29.76 in10.0 miWSW (240°)4.6 mphOvercast
6:55 PM33.8 °F28.4 °F81 %29.75 in10.0 miWest (270°)3.5 mphOvercast
7:15 PM32.0 °F26.6 °F80 %29.75 in10.0 miWNW (300°)3.5 mphOvercast
7:35 PM33.8 °F26.6 °F75 %29.74 in10.0 miWNW (300°)4.6 mphOvercast
7:55 PM33.8 °F28.4 °F81 %29.74 in10.0 miNW (310°)4.6 mphOvercast
8:15 PM33.8 °F26.6 °F75 %29.75 in10.0 miNW (320°)4.6 mphOvercast
8:35 PM35.6 °F23.0 °F60 %29.75 in10.0 miNorth (360°)3.5 mphOvercast
8:55 PM35.6 °F21.2 °F56 %29.75 in10.0 miNorth (10°)3.5 mphOvercast
9:15 PM35.6 °F21.2 °F56 %29.75 in10.0 miNorth (10°)4.6 mphOvercast
9:35 PM33.8 °F21.2 °F60 %29.75 in10.0 miWest (280°)5.8 mphOvercast
9:55 PM33.8 °F21.2 °F60 %29.74 in10.0 miNW (320°)3.5 mphOvercast
10:15 PM33.8 °F19.4 °F56 %29.74 in10.0 miNorth (360°)4.6 mphOvercast
10:35 PM35.6 °F21.2 °F56 %29.74 in10.0 miNNE (20°)4.6 mphOvercast
10:55 PM35.6 °F19.4 °F52 %29.75 in10.0 miNorth (360°)3.5 mphOvercast
11:15 PM33.8 °F21.2 °F60 %29.74 in10.0 miNNW (330°)3.5 mphOvercast
11:35 PM33.8 °F19.4 °F56 %29.73 in10.0 miNorth (360°)3.5 mphOvercast
11:55 PM33.8 °F21.2 °F60 %29.73 in10.0 miNorth (360°)3.5 mphOvercast
Hourly data recorded from KRKD, located miles away from Rockland, Maine







STORIES FROM OUR PARTNERS